Location: Lynch Observatory
(39.9540°N, 75.1861°W)
Time: 01:23:09
(UTC-05:00)

Tiangong 2 - Visible Passes

Search period start: 17 December 2017 00:00
Search period end: 27 December 2017 00:00
Orbit: 386 x 390 km, 42.8° (Epoch: 16 December)

Date Brightness Start Highest point End Pass type
(mag) Time Alt. Az. Time Alt. Az. Time Alt. Az.
19 Dec 3.7 18:19:51 10° S 18:20:22 11° SSE 18:20:22 11° SSE visible
20 Dec 3.8 18:56:16 10° SW 18:57:10 17° SW 18:57:10 17° SW visible
21 Dec 2.7 17:58:21 10° SSW 18:00:55 22° SSE 18:01:36 21° SE visible
22 Dec 2.0 18:35:52 10° WSW 18:38:16 46° SW 18:38:16 46° SW visible
23 Dec 1.9 17:37:36 10° SW 17:40:36 40° SSE 17:42:35 18° E visible
23 Dec 4.3 19:14:13 10° W 19:14:53 15° W 19:14:53 15° W visible
24 Dec 0.9 18:15:39 10° WSW 18:18:49 79° NNW 18:19:09 67° NE visible
25 Dec 1.2 17:17:10 10° WSW 17:20:20 70° SSE 17:23:24 11° ENE visible
25 Dec 3.3 18:54:08 10° W 18:55:41 25° WNW 18:55:41 25° WNW visible
26 Dec 1.3 17:55:31 10° W 17:58:39 57° N 17:59:55 31° NE visible
